Weather History for KVDI - December, 2012

Change the Weather History Date:

Monday, December 3, 2012

  Actual Average (KAZE) Record (KAZE)
Temperature  
Mean Temperature 67 °F -  
Max Temperature 77 °F 65 °F 91 °F (2014)
Min Temperature 57 °F 46 °F 50 °F (2013)
Cooling Degree Days 2    
Growing Degree Days 17 (Base 50)    
Moisture  
Dew Point 59 °F    
Average Humidity 85    
Maximum Humidity 100    
Minimum Humidity 47    
Precipitation  
Precipitation 0.00 in - - ()
Sea Level Pressure  
Sea Level Pressure 30.29 in    
Wind  
Wind Speed 1 mph (SE)    
Max Wind Speed 7 mph    
Max Gust Speed -    
Visibility 6 miles    
Events Fog    
Averages and records for this station are not official NWS values.
T = Trace of Precipitation, MM = Missing Value Source: NWS Daily Summary

Daily Weather History Graph

Daily Weather History Graph

Search for Another Location

Airport or City:

Trip Planner

Search our weather history database for the weather conditions in past years. The results will help you decide how hot, cold, wet, or windy it might be!

Date:

Astronomy

Dec. 03, 2012 Rise Set
Actual Time 7:14 AM EST 5:24 PM EST
Civil Twilight 6:47 AM EST 5:51 PM EST
Nautical Twilight 6:17 AM EST 6:21 PM EST
Astronomical Twilight 5:47 AM EST 6:51 PM EST
Moon 10:00 PM EST (12/3) 10:45 AM EST (12/3)
Length of Visible Light 11h 03m
Length of Day
10h 09m
Waning Gibbous, 78% of the Moon is Illuminated
Dec 3
Waning Gibbous
Dec 6
Last Quarter
Dec 13
New
Dec 20
First Quarter
Dec 28
Full

Hourly Weather History & Observations

Time (EST) Temp. Dew Point Humidity Pressure Visibility Wind Dir Wind Speed Gust Speed Precip Events Conditions
12:15 AM 59.0 °F 59.0 °F 100% 30.29 in 1.2 mi Calm Calm - N/A   Mist
12:35 AM 59.0 °F 57.2 °F 94% 30.28 in 0.2 mi Calm Calm - N/A Fog Fog
12:55 AM 60.8 °F 60.8 °F 100% 30.29 in 0.5 mi Calm Calm - N/A Fog Fog
1:15 AM 60.8 °F 60.8 °F 100% 30.29 in 0.2 mi SE 3.5 mph - N/A Fog Fog
1:55 AM 60.8 °F 60.8 °F 100% 30.30 in 0.2 mi Calm Calm - N/A Fog Fog
2:15 AM 60.8 °F 59.0 °F 94% 30.30 in 0.2 mi Calm Calm - N/A Fog Fog
2:35 AM 59.0 °F 59.0 °F 100% 30.30 in 0.2 mi Calm Calm - N/A Fog Fog
2:55 AM 59.0 °F 59.0 °F 100% 30.30 in 0.2 mi Calm Calm - N/A Fog Fog
3:15 AM 59.0 °F 59.0 °F 100% 30.30 in 0.5 mi Calm Calm - N/A Fog Fog
3:35 AM 59.0 °F 59.0 °F 100% 30.30 in 0.2 mi Calm Calm - N/A Fog Fog
3:55 AM 59.0 °F 59.0 °F 100% 30.30 in 0.2 mi Calm Calm - N/A Fog Fog
4:15 AM 60.8 °F 59.0 °F 94% 30.29 in 0.2 mi Calm Calm - N/A Fog Fog
4:35 AM 59.0 °F 59.0 °F 100% 30.29 in 0.2 mi Calm Calm - N/A Fog Fog
4:55 AM 59.0 °F 59.0 °F 100% 30.29 in 0.2 mi Calm Calm - N/A Fog Fog
5:15 AM 59.0 °F 59.0 °F 100% 30.29 in 0.2 mi Calm Calm - N/A Fog Fog
5:35 AM 59.0 °F 59.0 °F 100% 30.30 in 0.5 mi Calm Calm - N/A Fog Fog
5:55 AM 59.0 °F 59.0 °F 100% 30.30 in 0.2 mi Calm Calm - N/A Fog Fog
6:15 AM 59.0 °F 59.0 °F 100% 30.30 in 0.2 mi Calm Calm - N/A Fog Fog
6:35 AM 59.0 °F 59.0 °F 100% 30.31 in 0.2 mi Calm Calm - N/A Fog Fog
6:55 AM 59.0 °F 59.0 °F 100% 30.31 in 0.2 mi Calm Calm - N/A Fog Fog
7:15 AM 59.0 °F 57.2 °F 94% 30.32 in 0.2 mi Calm Calm - N/A Fog Fog
7:35 AM 57.2 °F 57.2 °F 100% 30.33 in 0.2 mi Calm Calm - N/A Fog Fog
7:55 AM 59.0 °F 59.0 °F 100% 30.33 in 0.2 mi Calm Calm - N/A Fog Fog
8:15 AM 59.0 °F 59.0 °F 100% 30.33 in 0.2 mi Calm Calm - N/A Fog Fog
8:35 AM 59.0 °F 59.0 °F 100% 30.34 in 0.2 mi Calm Calm - N/A Fog Fog
8:55 AM 59.0 °F 59.0 °F 100% 30.34 in 0.2 mi Calm Calm - N/A Fog Fog
9:15 AM 60.8 °F 60.8 °F 100% 30.34 in 0.2 mi Calm Calm - N/A Fog Fog
9:55 AM 60.8 °F 60.8 °F 100% 30.34 in 0.2 mi Calm Calm - N/A Fog Fog
10:15 AM 62.6 °F 60.8 °F 94% 30.34 in 0.5 mi Calm Calm - N/A Fog Fog
10:35 AM 62.6 °F 62.6 °F 100% 30.34 in 2.0 mi Calm Calm - N/A   Overcast
10:55 AM 62.6 °F 62.6 °F 100% 30.33 in 5.0 mi Calm Calm - N/A   Overcast
11:15 AM 64.4 °F 64.4 °F 100% 30.33 in 10.0 mi Calm Calm - N/A   Mostly Cloudy
11:35 AM 66.2 °F 64.4 °F 94% 30.32 in 10.0 mi Calm Calm - N/A   Mostly Cloudy
11:55 AM 69.8 °F 64.4 °F 83% 30.31 in 10.0 mi Calm Calm - N/A   Clear
12:15 PM 71.6 °F 62.6 °F 73% 30.30 in 10.0 mi South 3.5 mph - N/A   Clear
12:35 PM 73.4 °F 64.4 °F 73% 30.29 in 10.0 mi Calm Calm - N/A   Clear
12:55 PM 75.2 °F 62.6 °F 65% 30.28 in 10.0 mi ESE 3.5 mph - N/A   Clear
1:15 PM 75.2 °F 60.8 °F 61% 30.28 in 10.0 mi Calm Calm - N/A   Clear
1:35 PM 75.2 °F 60.8 °F 61% 30.27 in 10.0 mi Calm Calm - N/A   Scattered Clouds
1:55 PM 77.0 °F 60.8 °F 57% 30.27 in 10.0 mi SE 3.5 mph - N/A   Clear
2:15 PM 77.0 °F 57.2 °F 50% 30.26 in 10.0 mi Calm Calm - N/A   Scattered Clouds
2:35 PM 77.0 °F 55.4 °F 47% 30.26 in 10.0 mi SSE 4.6 mph - N/A   Scattered Clouds
2:55 PM 77.0 °F 55.4 °F 47% 30.26 in 10.0 mi SE 4.6 mph - N/A   Mostly Cloudy
3:15 PM 77.0 °F 55.4 °F 47% 30.25 in 10.0 mi East 4.6 mph - N/A   Scattered Clouds
3:35 PM 77.0 °F 55.4 °F 47% 30.25 in 10.0 mi SE 4.6 mph - N/A   Scattered Clouds
3:55 PM 77.0 °F 55.4 °F 47% 30.25 in 10.0 mi East 6.9 mph - N/A   Scattered Clouds
4:15 PM 75.2 °F 53.6 °F 47% 30.25 in 10.0 mi ESE 3.5 mph - N/A   Clear
4:35 PM 73.4 °F 55.4 °F 53% 30.26 in 10.0 mi ESE 3.5 mph - N/A   Clear
4:55 PM 71.6 °F 55.4 °F 57% 30.26 in 10.0 mi Calm Calm - N/A   Clear
5:15 PM 69.8 °F 57.2 °F 64% 30.26 in 10.0 mi Calm Calm - N/A   Clear
5:35 PM 68.0 °F 57.2 °F 68% 30.26 in 10.0 mi Calm Calm - N/A   Clear
5:55 PM 66.2 °F 59.0 °F 78% 30.27 in 10.0 mi Calm Calm - N/A   Clear
6:15 PM 64.4 °F 57.2 °F 77% 30.27 in 10.0 mi ESE 3.5 mph - N/A   Clear
6:35 PM 64.4 °F 57.2 °F 77% 30.27 in 10.0 mi SE 3.5 mph - N/A   Clear
6:55 PM 62.6 °F 57.2 °F 82% 30.28 in 10.0 mi Calm Calm - N/A   Clear
7:15 PM 62.6 °F 57.2 °F 82% 30.28 in 10.0 mi Calm Calm - N/A   Clear
7:35 PM 60.8 °F 57.2 °F 88% 30.28 in 10.0 mi SE 3.5 mph - N/A   Clear
7:55 PM 64.4 °F 59.0 °F 83% 30.28 in 10.0 mi SE 4.6 mph - N/A   Clear
8:15 PM 60.8 °F 55.4 °F 82% 30.28 in 10.0 mi Calm Calm - N/A   Clear
8:35 PM 60.8 °F 57.2 °F 88% 30.28 in 10.0 mi Calm Calm - N/A   Clear
8:55 PM 62.6 °F 59.0 °F 88% 30.28 in 10.0 mi SSE 3.5 mph - N/A   Clear
9:15 PM 60.8 °F 57.2 °F 88% 30.29 in 10.0 mi Calm Calm - N/A   Clear
9:35 PM 60.8 °F 57.2 °F 88% 30.29 in 10.0 mi Calm Calm - N/A   Clear
9:55 PM 60.8 °F 57.2 °F 88% 30.29 in 10.0 mi Calm Calm - N/A   Clear
10:15 PM 59.0 °F 57.2 °F 94% 30.30 in 10.0 mi Calm Calm - N/A   Clear
10:35 PM 59.0 °F 57.2 °F 94% 30.29 in 10.0 mi Calm Calm - N/A   Clear
10:55 PM 57.2 °F 55.4 °F 94% 30.29 in 10.0 mi SSE 3.5 mph - N/A   Clear
11:15 PM 59.0 °F 55.4 °F 88% 30.29 in 10.0 mi Calm Calm - N/A   Clear
11:35 PM 59.0 °F 59.0 °F 100% 30.29 in 10.0 mi SSE 3.5 mph - N/A   Clear
11:55 PM 60.8 °F 59.0 °F 94% 30.29 in 10.0 mi SSE 4.6 mph - N/A   Clear